[[{"header":{"parameterUnit":"m.s-1","parameterCategory":1,"la1":30.2991,"la2":30.254,"lo1":-89.0895,"lo2":-89.0444,"dy":0.0017,"dx":0.0017,"nx":28,"ny":28,"refTime":"2023-05-28T21:00:00:Z","depth":0,"parameterNumber":2,"parameterNumberName":"U-component_of_WINDS"},"data":[0,0,0,0,0,0,0,0,0,0,0,0,0,0,0,0,0,0,0,0,0,0,0,0,0,0,0,0,0,0,0,0,0,0,0,0,0,0,0,0,0,0,0,0,0,0,0,0,0,0,0,0,0,0,0,0,0,0,1.0383,1.0385,0,1.057,1.0572,1.0574,1.0654,1.0654,1.0654,1.0653,1.0845,1.085,1.0855,0,0,0,0,0,0,0,0,0,0,0,0,0,1.0096,1.0101,1.0383,1.0385,1.0388,1.0569,1.0572,1.0574,1.0654,1.0654,1.0654,1.0653,1.0843,1.0849,1.0856,0,0,0,0,0,0,0,0,0,0,0,0,0,1.0245,1.0102,1.0383,1.0449,1.0457,1.0569,1.0572,1.0575,1.0654,1.0654,1.0653,1.0653,1.0841,1.0849,1.0857,1.0916,0,0,1.0881,1.0885,0,0,0,0,0,0,0,0,1.0236,1.0256,1.0437,1.0445,1.0454,1.0588,1.0541,1.0689,1.0654,1.058,1.0653,1.0653,1.076,1.0774,1.081,1.0925,1.0933,1.0882,1.0887,1.089,1.0893,0,0,0,0,0,0,0,1.0226,1.0248,1.0457,1.044,1.045,1.047,1.0491,1.0569,1.067,1.0586,1.0592,1.0613,1.0764,1.0802,1.0816,1.0936,1.0882,1.0889,1.0894,1.0897,1.1107,1.1108,0,0,0,0,0,0,1.0205,1.0239,1.0451,1.0463,1.0342,1.0475,1.0499,1.0546,1.0669,1.0688,1.0613,1.0616,1.0789,1.0806,1.0823,1.09,1.089,1.0898,1.0902,1.1107,1.1108,1.1108,0,0,0,0,0,0,1.0198,1.0223,1.0443,1.0353,1.0382,1.0481,1.0533,1.055,1.0588,1.069,1.0708,1.0634,1.0789,1.0811,1.0892,1.0908,1.0901,1.0909,1.1106,1.1107,1.1108,1.1055,0,0,0,0,0,0,1.019,1.022,1.0244,1.0352,1.0387,1.0509,1.0534,1.0554,1.0602,1.0607,1.0714,1.0732,1.0791,1.0879,1.09,1.0919,1.0915,1.1105,1.1106,1.1108,1.1055,1.1054,1.1052,0,0,0,0,0,1.0179,1.0221,1.0244,1.027,1.0418,1.051,1.053,1.0597,1.0602,1.0627,1.0692,1.0728,1.0902,1.0887,1.0911,1.0932,1.1104,1.1106,1.1108,1.1056,1.1054,1.1052,0,0,0,0,0,0,1.0112,1.0237,1.0264,1.0343,1.0415,1.0524,1.0557,1.0592,1.0665,1.0667,1.0747,1.0771,1.0844,1.0897,1.0877,1.0996,1.1006,1.1013,1.0959,1.0958,1.0956,1.0943,1.0922,0,0,0,0,0,1.0106,1.0171,1.0276,1.0336,1.0371,1.0457,1.05,1.0545,1.0623,1.0654,1.0726,1.0801,1.0873,1.0918,1.099,1.1063,1.1088,1.109,1.1088,1.1086,1.1091,1.1134,1.1136,1.1114,1.1114,1.1114,0,0,1.0095,1.0172,1.0207,1.0324,1.0386,1.045,1.0482,1.055,1.0599,1.0665,1.0745,1.08,1.0889,1.0966,1.1004,1.1012,1.1102,1.1088,1.1086,1.1092,1.1135,1.1137,1.1139,1.1115,1.1115,1.1115,0,0,1.0109,1.0173,1.0229,1.029,1.0383,1.044,1.0453,1.0556,1.0595,1.0677,1.0728,1.0787,1.0909,1.097,1.1017,1.1052,1.1088,1.1073,1.1066,1.1106,1.1108,1.111,1.1122,1.1126,1.1078,1.1078,1.1078,0,1.0083,1.0183,1.0253,1.0318,1.0368,1.043,1.0488,1.0543,1.0654,1.0687,1.0695,1.0848,1.0913,1.1005,1.1013,1.1049,1.1067,1.1062,1.1102,1.1104,1.1107,1.112,1.1125,1.1075,1.1076,1.1076,1.1076,0,1.0148,1.0216,1.025,1.0356,1.0409,1.047,1.0549,1.0595,1.0635,1.0691,1.0773,1.0852,1.0941,1.0966,1.1006,1.1064,1.1066,1.1086,1.1099,1.1106,1.1119,1.1125,1.1072,1.1073,1.1073,1.1074,0,0,1.0124,1.0268,1.0279,1.0328,1.0434,1.0488,1.0551,1.0638,1.0675,1.075,1.0805,1.0906,1.0925,1.0978,1.1026,1.1061,1.1084,1.1078,1.1081,1.1076,1.1152,1.1136,1.1141,1.1108,1.1109,1.111,1.1145,0,1.0152,1.0268,1.0333,1.0422,1.0486,1.0546,1.0601,1.0672,1.0726,1.0788,1.0847,1.0918,1.0938,1.0971,1.1008,1.1073,1.11,1.1071,1.116,1.1162,1.1136,1.1148,1.1132,1.1161,1.1151,1.1152,1.1152,0,1.0201,1.0274,1.0369,1.0468,1.0497,1.0545,1.0629,1.0688,1.0769,1.0806,1.0865,1.0912,1.0981,1.0987,1.1083,1.1062,1.1101,1.1139,1.1141,1.1153,1.1158,1.116,1.1172,1.1176,1.1161,1.1161,1.116,0,1.0174,1.0296,1.0369,1.0409,1.0526,1.0558,1.0609,1.069,1.0737,1.0811,1.0843,1.0923,1.0967,1.1028,1.1095,1.1094,1.1184,1.1196,1.1217,1.1215,1.1234,1.1232,1.1252,1.1258,1.1258,1.1258,1.1258,0,1.0198,1.0254,1.0359,1.0403,1.0468,1.0541,1.0603,1.0658,1.0729,1.0786,1.0842,1.0894,1.098,1.1042,1.1095,1.1166,1.1185,1.1217,1.1231,1.1212,1.1208,1.124,1.124,1.126,1.1259,1.1259,1.1259,0,1.018,1.0252,1.0336,1.0439,1.0467,1.0509,1.0598,1.0644,1.07,1.0771,1.0792,1.0881,1.0957,1.103,1.1132,1.1167,1.1238,1.1256,1.1211,1.1218,1.1235,1.1232,1.1277,1.1286,1.1285,1.1285,1.1285,0,1.0191,1.0236,1.0344,1.0386,1.0435,1.0501,1.055,1.0624,1.0672,1.0768,1.0802,1.0882,1.0951,1.1069,1.1143,1.1221,1.1241,1.1251,1.1253,1.1233,1.1242,1.1238,1.1243,1.125,1.1249,1.1249,1.1249,0,1.0203,1.0236,1.0305,1.0385,1.0442,1.0509,1.0578,1.0608,1.0695,1.0747,1.0825,1.0878,1.0982,1.1061,1.1147,1.1199,1.1239,1.1248,1.1257,1.1239,1.1211,1.1226,1.1206,1.1246,1.1247,1.1247,1.1247,1.1247,1.02,1.0242,1.0325,1.0399,1.0459,1.0521,1.0569,1.0632,1.0698,1.0788,1.0828,1.0907,1.0987,1.1107,1.1159,1.1221,1.1231,1.1244,1.1247,1.1249,1.1245,1.12,1.1237,1.1238,1.1238,1.1238,1.1238,0,1.0215,1.0271,1.0338,1.0433,1.0491,1.0522,1.06,1.0647,1.0716,1.0787,1.0853,1.0942,1.1019,1.1098,1.1179,1.1214,1.1234,1.1233,1.1232,1.1243,1.1232,1.1217,1.1216,1.1216,1.1216,1.1216,1.1216,1.1216,1.023,1.0303,1.0346,1.0448,1.0504,1.0582,1.0624,1.0682,1.074,1.0837,1.0901,1.0952,1.1027,1.1114,1.1185,1.1207,1.1234,1.1228,1.1254,1.1242,1.1244,1.1245,1.1231,1.1233,1.1233,1.126,1.126,1.126]},{"header":{"parameterUnit":"m.s-1","parameterCategory":1,"la1":30.2991,"la2":30.254,"lo1":-89.0895,"lo2":-89.0444,"dy":0.0017,"dx":0.0017,"nx":28,"ny":28,"refTime":"2023-05-28T21:00:00:Z","depth":0,"parameterNumber":3,"parameterNumberName":"V-component_of_WINDS"},"data":[0,0,0,0,0,0,0,0,0,0,0,0,0,0,0,0,0,0,0,0,0,0,0,0,0,0,0,0,0,0,0,0,0,0,0,0,0,0,0,0,0,0,0,0,0,0,0,0,0,0,0,0,0,0,0,0,0,0,3.2996,3.2996,0,3.2985,3.2985,3.2985,3.2943,3.2942,3.2941,3.294,3.2927,3.2927,3.2928,0,0,0,0,0,0,0,0,0,0,0,0,0,3.298,3.298,3.2996,3.2996,3.2996,3.2985,3.2985,3.2984,3.2943,3.2942,3.2941,3.294,3.2927,3.2927,3.2928,0,0,0,0,0,0,0,0,0,0,0,0,0,3.2979,3.298,3.2996,3.2974,3.2972,3.2985,3.2985,3.2984,3.2943,3.2942,3.2941,3.2939,3.2926,3.2927,3.2928,3.2961,0,0,3.293,3.293,0,0,0,0,0,0,0,0,3.2979,3.298,3.2978,3.2976,3.2973,3.2964,3.2974,3.2976,3.2944,3.2954,3.294,3.2939,3.294,3.294,3.294,3.296,3.2959,3.293,3.2931,3.2931,3.2931,0,0,0,0,0,0,0,3.2979,3.298,3.2992,3.2978,3.2975,3.2964,3.2962,3.2974,3.2955,3.2953,3.295,3.2949,3.2939,3.294,3.294,3.2959,3.293,3.2931,3.2931,3.2932,3.3001,3.3002,0,0,0,0,0,0,3.2983,3.2981,3.2992,3.2991,3.2973,3.2965,3.2963,3.2968,3.2955,3.2952,3.2951,3.2948,3.2939,3.2939,3.2939,3.2974,3.2931,3.2932,3.2932,3.3,3.3001,3.3003,0,0,0,0,0,0,3.2983,3.2984,3.2993,3.2985,3.2985,3.2967,3.2973,3.2969,3.297,3.2953,3.2949,3.2956,3.2938,3.2938,3.2955,3.2973,3.2932,3.2933,3.2998,3.3,3.3002,3.3045,0,0,0,0,0,0,3.2983,3.2985,3.2998,3.2986,3.2986,3.301,3.2974,3.297,3.2972,3.2967,3.2957,3.2953,3.2937,3.2954,3.2956,3.2973,3.2933,3.2996,3.2999,3.3001,3.3042,3.3048,3.3054,0,0,0,0,0,3.2982,3.3011,3.2999,3.3,3.3002,3.3011,3.3011,3.2992,3.2973,3.2985,3.2974,3.2954,3.2971,3.2956,3.2958,3.2975,3.2995,3.2998,3.3001,3.3039,3.3047,3.3053,0,0,0,0,0,0,3.3025,3.3009,3.2995,3.3021,3.3018,3.3004,3.3018,3.3001,3.3002,3.2998,3.2975,3.2972,3.2992,3.2986,3.2969,3.3005,3.2979,3.2983,3.3008,3.3015,3.3021,3.3021,3.2934,0,0,0,0,0,3.3038,3.3047,3.3032,3.3056,3.3055,3.3037,3.304,3.3026,3.3021,3.3019,3.3009,3.3005,3.3009,3.3012,3.3015,3.3041,3.3037,3.3054,3.306,3.3065,3.3068,3.3078,3.3084,3.3013,3.3013,3.3013,0,0,3.3064,3.3056,3.3063,3.3064,3.306,3.3068,3.3036,3.3047,3.3053,3.3021,3.3035,3.3028,3.3021,3.3042,3.305,3.3037,3.3087,3.3069,3.3073,3.3073,3.3082,3.3088,3.3094,3.3015,3.3015,3.3015,0,0,3.3114,3.3111,3.3129,3.3125,3.3118,3.3106,3.3111,3.3099,3.3093,3.3107,3.3082,3.3088,3.3097,3.3092,3.309,3.3137,3.3117,3.3139,3.3169,3.3179,3.3185,3.319,3.3203,3.3209,3.3142,3.3143,3.3143,0,3.3147,3.316,3.314,3.3152,3.3152,3.3124,3.314,3.3138,3.3133,3.3132,3.3118,3.3126,3.312,3.3137,3.3149,3.315,3.3152,3.3139,3.3186,3.3191,3.3195,3.3207,3.3213,3.3145,3.3145,3.3144,3.3144,0,3.3198,3.3207,3.3222,3.3217,3.322,3.3234,3.3215,3.322,3.3205,3.3194,3.3207,3.3199,3.3198,3.3201,3.3188,3.3216,3.3208,3.3191,3.3164,3.3204,3.3215,3.3221,3.3148,3.3148,3.3147,3.3146,0,0,3.3275,3.3258,3.3264,3.326,3.325,3.3256,3.3269,3.3268,3.3271,3.3268,3.3276,3.3283,3.3266,3.3264,3.325,3.3259,3.3293,3.324,3.3239,3.3247,3.332,3.3331,3.3337,3.328,3.3281,3.3282,3.3319,0,3.332,3.334,3.3323,3.3345,3.3352,3.3324,3.3335,3.3329,3.3319,3.3322,3.331,3.3314,3.3293,3.3291,3.33,3.3287,3.3306,3.3284,3.3285,3.3285,3.3285,3.3344,3.3356,3.3391,3.3324,3.3325,3.3325,0,3.3376,3.3375,3.3398,3.3384,3.3386,3.3396,3.3392,3.3397,3.3389,3.3381,3.3378,3.336,3.3369,3.3346,3.3356,3.3341,3.3341,3.3335,3.3335,3.3333,3.3306,3.3339,3.3403,3.3407,3.3333,3.3332,3.3332,0,3.3425,3.343,3.3444,3.3442,3.3427,3.3434,3.3428,3.3419,3.3419,3.3416,3.3415,3.3414,3.3412,3.3411,3.3392,3.3377,3.3404,3.3379,3.3395,3.3395,3.34,3.3399,3.3461,3.3404,3.3404,3.3404,3.3404,0,3.3476,3.3491,3.3465,3.3473,3.3488,3.3467,3.3482,3.3473,3.3465,3.347,3.3447,3.3452,3.3428,3.343,3.3416,3.3425,3.3425,3.3417,3.3412,3.3417,3.3418,3.3414,3.341,3.3406,3.3405,3.3405,3.3405,0,3.3533,3.3517,3.3529,3.3514,3.3511,3.3522,3.3508,3.3514,3.3502,3.3508,3.3508,3.3489,3.349,3.3472,3.3469,3.3459,3.3474,3.3466,3.3476,3.3472,3.3488,3.3486,3.3547,3.3553,3.3496,3.3496,3.3497,0,3.3565,3.3575,3.3561,3.3562,3.3557,3.3561,3.356,3.354,3.354,3.3531,3.3537,3.3536,3.3534,3.3536,3.3521,3.3518,3.3508,3.353,3.3507,3.3511,3.3505,3.3503,3.3503,3.3534,3.3535,3.3535,3.3536,0,3.3622,3.3613,3.3614,3.3611,3.3611,3.3608,3.3603,3.3606,3.3583,3.3584,3.3584,3.3583,3.3579,3.3577,3.3571,3.3564,3.3545,3.3543,3.3546,3.355,3.3554,3.3549,3.3486,3.3541,3.3541,3.354,3.354,3.354,3.3665,3.3672,3.3662,3.3663,3.3657,3.3653,3.3657,3.3645,3.3645,3.364,3.3629,3.363,3.362,3.361,3.3604,3.3604,3.3593,3.3598,3.3599,3.3599,3.3601,3.3556,3.3603,3.3603,3.3603,3.3603,3.3603,0,3.3718,3.3711,3.3712,3.3705,3.3705,3.3689,3.3682,3.3683,3.3685,3.3677,3.3675,3.3674,3.3672,3.3657,3.3652,3.3655,3.3646,3.3654,3.3652,3.365,3.3613,3.3609,3.3661,3.3661,3.3661,3.3661,3.3661,3.3661,3.3746,3.3755,3.3745,3.3751,3.3743,3.3744,3.3742,3.3737,3.373,3.373,3.3728,3.3719,3.3707,3.3701,3.3698,3.3693,3.3691,3.3702,3.3694,3.3659,3.3653,3.3648,3.3644,3.3702,3.3702,3.3731,3.3731,3.3732]}]]